Location: Ar Ranvel
(48.3000°N, 4.8833°W)
Time: 04:06:40
(UTC+00:00)

COSMOS 2251 DEB - Pass Details

Date: 02 February 2022
Orbit: 755 x 1085 km, 74.1° (Epoch: 18 May)

Event Time Altitude Azimuth Distance (km) Brightness Sun altitude
Rises 20:03:14 0° 330° (NNW) 3,851 ? -27.2°
Reaches altitude 10° 20:06:09 10° 320° (NW) 2,918 ? -27.7°
Maximum altitude 20:11:56 30° 263° (W) 1,846 ? -28.7°
Drops below altitude 10° 20:17:43 10° 205° (SSW) 2,914 ? -29.6°
Sets 20:20:38 0° 195° (SSW) 3,846 ? -30.1°
